Location: Bremen
(53.0793°N, 8.8017°E)
Time: 22:07:27
(UTC+01:00)

S-56A Canister/Altair - Pass Details

Date: 07 December 2021
Orbit: 634 x 2499 km, 38.9° (Epoch: 26 January)

Event Time Altitude Azimuth Distance (km) Brightness Sun altitude
Rises 00:33:54 0° 238° (WSW) 5,263 - -59.3°
Reaches altitude 10° 00:38:22 10° 228° (SW) 3,939 - -59.2°
Maximum altitude 00:46:06 27° 176° (S) 2,253 - -59.0°
Drops below altitude 10° 00:51:46 10° 121° (ESE) 2,820 - -58.8°
Sets 00:54:24 0° 109° (ESE) 3,553 - -58.7°
